Time,TemperatureF,DewpointF,PressureIn,WindDirection,WindDirectionDegrees,WindSpeedMPH,WindSpeedGustMPH,Humidity,HourlyPrecipIn,Conditions,Clouds,dailyrainin,SoftwareType,DateUTC
2013-10-01 00:04:00,52.2,50.0,29.98,East,94,1.0,1.0,91,0.00,,,0.00,weatherlink.com 1.10,2013-10-01 04:04:00,
2013-10-01 00:19:00,52.2,50.0,29.98,East,94,1.0,1.0,91,0.00,,,0.00,weatherlink.com 1.10,2013-10-01 04:19:00,
2013-10-01 00:34:00,52.0,50.0,29.98,East,88,1.0,1.0,91,0.00,,,0.00,weatherlink.com 1.10,2013-10-01 04:34:00,
2013-10-01 00:49:00,51.7,50.0,29.98,East,87,1.0,1.0,92,0.00,,,0.00,weatherlink.com 1.10,2013-10-01 04:49:00,
2013-10-01 01:04:00,51.8,49.0,29.98,East,88,1.0,1.0,91,0.00,,,0.00,weatherlink.com 1.10,2013-10-01 05:04:00,
2013-10-01 01:19:00,51.7,49.0,29.98,East,88,1.0,1.0,91,0.00,,,0.00,weatherlink.com 1.10,2013-10-01 05:19:00,
2013-10-01 01:34:00,51.3,49.0,29.98,East,87,1.0,1.0,92,0.00,,,0.00,weatherlink.com 1.10,2013-10-01 05:34:00,
2013-10-01 01:49:00,51.4,49.0,29.97,East,87,1.0,1.0,92,0.00,,,0.00,weatherlink.com 1.10,2013-10-01 05:49:00,
2013-10-01 02:04:00,51.0,49.0,29.97,East,87,1.0,1.0,92,0.00,,,0.00,weatherlink.com 1.10,2013-10-01 06:04:00,
2013-10-01 02:19:00,50.8,48.0,29.97,East,88,1.0,1.0,91,0.00,,,0.00,weatherlink.com 1.10,2013-10-01 06:19:00,
2013-10-01 02:34:00,50.9,49.0,29.96,East,87,0.0,1.0,92,0.00,,,0.00,weatherlink.com 1.10,2013-10-01 06:34:00,
2013-10-01 02:49:00,50.7,48.0,29.96,East,87,0.0,1.0,91,0.00,,,0.00,weatherlink.com 1.10,2013-10-01 06:49:00,
2013-10-01 03:04:00,50.7,48.0,29.95,East,87,1.0,1.0,91,0.00,,,0.00,weatherlink.com 1.10,2013-10-01 07:04:00,
2013-10-01 03:19:00,50.7,48.0,29.95,East,87,1.0,1.0,90,0.00,,,0.00,weatherlink.com 1.10,2013-10-01 07:19:00,
2013-10-01 03:34:00,50.4,47.0,29.96,East,87,1.0,1.0,89,0.00,,,0.00,weatherlink.com 1.10,2013-10-01 07:34:00,
2013-10-01 03:49:00,50.2,47.0,29.96,East,87,1.0,1.0,89,0.00,,,0.00,weatherlink.com 1.10,2013-10-01 07:49:00,
2013-10-01 04:04:00,50.1,47.0,29.96,East,87,0.0,1.0,89,0.00,,,0.00,weatherlink.com 1.10,2013-10-01 08:04:00,
2013-10-01 04:19:00,49.9,47.0,29.96,East,87,1.0,1.0,88,0.00,,,0.00,weatherlink.com 1.10,2013-10-01 08:19:00,
2013-10-01 04:34:00,49.7,47.0,29.96,East,87,1.0,1.0,89,0.00,,,0.00,weatherlink.com 1.10,2013-10-01 08:34:00,
2013-10-01 04:49:00,49.8,47.0,29.96,East,87,1.0,1.0,89,0.00,,,0.00,weatherlink.com 1.10,2013-10-01 08:49:00,
2013-10-01 05:04:00,49.6,47.0,29.96,East,87,0.0,1.0,89,0.00,,,0.00,weatherlink.com 1.10,2013-10-01 09:04:00,
2013-10-01 05:19:00,49.2,47.0,29.96,East,88,0.0,0.0,90,0.00,,,0.00,weatherlink.com 1.10,2013-10-01 09:19:00,
2013-10-01 05:34:00,49.7,47.0,29.96,East,88,1.0,1.0,89,0.00,,,0.00,weatherlink.com 1.10,2013-10-01 09:34:00,
2013-10-01 05:49:00,50.0,47.0,29.96,East,87,1.0,1.0,89,0.00,,,0.00,weatherlink.com 1.10,2013-10-01 09:49:00,
2013-10-01 06:04:00,49.7,47.0,29.97,East,87,1.0,1.0,89,0.00,,,0.00,weatherlink.com 1.10,2013-10-01 10:04:00,
2013-10-01 06:19:00,49.7,47.0,29.98,East,87,1.0,1.0,90,0.00,,,0.00,weatherlink.com 1.10,2013-10-01 10:19:00,
2013-10-01 06:34:00,49.7,47.0,29.98,East,87,1.0,1.0,89,0.00,,,0.00,weatherlink.com 1.10,2013-10-01 10:34:00,
2013-10-01 06:49:00,49.6,47.0,29.98,East,87,1.0,1.0,89,0.00,,,0.00,weatherlink.com 1.10,2013-10-01 10:49:00,
2013-10-01 07:04:00,49.8,47.0,29.98,East,87,0.0,1.0,90,0.00,,,0.00,weatherlink.com 1.10,2013-10-01 11:04:00,
2013-10-01 07:19:00,50.7,48.0,29.99,East,87,0.0,1.0,90,0.00,,,0.00,weatherlink.com 1.10,2013-10-01 11:19:00,
2013-10-01 07:34:00,51.7,49.0,29.99,East,87,0.0,1.0,90,0.00,,,0.00,weatherlink.com 1.10,2013-10-01 11:34:00,
2013-10-01 07:49:00,52.6,50.0,29.98,East,88,0.0,1.0,90,0.00,,,0.00,weatherlink.com 1.10,2013-10-01 11:49:00,
2013-10-01 08:04:00,53.3,50.0,29.98,East,87,0.0,1.0,89,0.00,,,0.00,weatherlink.com 1.10,2013-10-01 12:04:00,
2013-10-01 08:19:00,53.4,50.0,29.98,ESE,117,0.0,1.0,89,0.00,,,0.00,weatherlink.com 1.10,2013-10-01 12:19:00,
2013-10-01 08:34:00,53.7,50.0,29.98,ESE,114,1.0,1.0,88,0.00,,,0.00,weatherlink.com 1.10,2013-10-01 12:34:00,
2013-10-01 08:49:00,53.9,51.0,29.99,North,349,0.0,2.0,88,0.00,,,0.00,weatherlink.com 1.10,2013-10-01 12:49:00,
2013-10-01 09:04:00,54.9,51.0,29.98,North,349,0.0,1.0,87,0.00,,,0.00,weatherlink.com 1.10,2013-10-01 13:04:00,
2013-10-01 09:19:00,55.8,52.0,29.98,North,349,0.0,0.0,86,0.00,,,0.00,weatherlink.com 1.10,2013-10-01 13:19:00,
2013-10-01 09:34:00,56.9,52.0,29.98,North,349,0.0,1.0,83,0.00,,,0.00,weatherlink.com 1.10,2013-10-01 13:34:00,
2013-10-01 09:50:00,58.7,53.0,29.98,North,349,0.0,0.0,81,0.00,,,0.00,weatherlink.com 1.10,2013-10-01 13:50:00,
2013-10-01 10:05:00,59.6,53.0,29.98,NNE,18,0.0,1.0,78,0.00,,,0.00,weatherlink.com 1.10,2013-10-01 14:05:00,
2013-10-01 10:20:00,60.1,52.0,29.98,NNE,18,0.0,1.0,75,0.00,,,0.00,weatherlink.com 1.10,2013-10-01 14:20:00,
2013-10-01 10:36:00,60.7,52.0,29.97,NNW,343,0.0,1.0,74,0.00,,,0.00,weatherlink.com 1.10,2013-10-01 14:36:00,
2013-10-01 10:50:00,61.3,52.0,29.97,SSE,153,0.0,1.0,71,0.00,,,0.00,weatherlink.com 1.10,2013-10-01 14:50:00,
2013-10-01 11:05:00,62.4,52.0,29.96,NNE,23,0.0,3.0,70,0.00,,,0.00,weatherlink.com 1.10,2013-10-01 15:05:00,
2013-10-01 11:20:00,63.9,51.0,29.96,NW,305,0.0,4.0,64,0.00,,,0.00,weatherlink.com 1.10,2013-10-01 15:20:00,
2013-10-01 11:35:00,65.3,52.0,29.95,West,274,0.0,6.0,63,0.00,,,0.00,weatherlink.com 1.10,2013-10-01 15:35:00,
2013-10-01 11:50:00,67.0,54.0,29.95,West,277,0.0,2.0,64,0.00,,,0.00,weatherlink.com 1.10,2013-10-01 15:50:00,
2013-10-01 12:05:00,66.9,53.0,29.95,West,278,1.0,5.0,62,0.00,,,0.00,weatherlink.com 1.10,2013-10-01 16:05:00,
2013-10-01 12:20:00,66.5,53.0,29.95,NW,319,2.0,6.0,62,0.00,,,0.00,weatherlink.com 1.10,2013-10-01 16:20:00,
2013-10-01 12:35:00,66.6,52.0,29.94,NE,36,1.0,3.0,60,0.00,,,0.00,weatherlink.com 1.10,2013-10-01 16:35:00,
2013-10-01 12:50:00,67.0,53.0,29.93,WNW,298,1.0,3.0,62,0.00,,,0.00,weatherlink.com 1.10,2013-10-01 16:50:00,
2013-10-01 13:05:00,66.6,54.0,29.93,NW,326,4.0,4.0,64,0.00,,,0.00,weatherlink.com 1.10,2013-10-01 17:05:00,
2013-10-01 13:20:00,68.0,55.0,29.92,WNW,284,0.0,2.0,63,0.00,,,0.00,weatherlink.com 1.10,2013-10-01 17:20:00,
2013-10-01 13:35:00,68.6,54.0,29.92,NW,310,4.0,7.0,61,0.00,,,0.00,weatherlink.com 1.10,2013-10-01 17:35:00,
2013-10-01 13:50:00,68.6,56.0,29.91,NNE,24,1.0,5.0,65,0.00,,,0.00,weatherlink.com 1.10,2013-10-01 17:50:00,
2013-10-01 14:06:00,68.3,56.0,29.91,South,185,3.0,5.0,64,0.00,,,0.00,weatherlink.com 1.10,2013-10-01 18:06:00,
2013-10-01 14:20:00,68.9,56.0,29.91,West,280,2.0,4.0,63,0.00,,,0.00,weatherlink.com 1.10,2013-10-01 18:20:00,
2013-10-01 14:35:00,69.0,57.0,29.90,WSW,240,2.0,6.0,65,0.00,,,0.00,weatherlink.com 1.10,2013-10-01 18:35:00,
2013-10-01 14:50:00,69.0,58.0,29.90,SSW,212,0.0,4.0,68,0.00,,,0.00,weatherlink.com 1.10,2013-10-01 18:50:00,
2013-10-01 15:06:00,69.4,57.0,29.89,WNW,284,1.0,2.0,65,0.00,,,0.00,weatherlink.com 1.10,2013-10-01 19:06:00,
2013-10-01 15:21:00,68.6,56.0,29.89,NW,308,2.0,7.0,65,0.00,,,0.00,weatherlink.com 1.10,2013-10-01 19:21:00,
2013-10-01 15:36:00,68.3,57.0,29.88,WNW,285,2.0,3.0,68,0.00,,,0.00,weatherlink.com 1.10,2013-10-01 19:36:00,
2013-10-01 15:51:00,68.2,56.0,29.88,West,271,1.0,3.0,66,0.00,,,0.00,weatherlink.com 1.10,2013-10-01 19:51:00,
2013-10-01 16:06:00,67.8,56.0,29.88,WNW,293,0.0,6.0,66,0.00,,,0.00,weatherlink.com 1.10,2013-10-01 20:06:00,
2013-10-01 16:21:00,67.8,57.0,29.87,SE,146,0.0,0.0,68,0.00,,,0.00,weatherlink.com 1.10,2013-10-01 20:21:00,
2013-10-01 16:36:00,67.4,56.0,29.87,SE,129,0.0,1.0,67,0.00,,,0.00,weatherlink.com 1.10,2013-10-01 20:36:00,
2013-10-01 16:51:00,67.3,56.0,29.87,NW,319,0.0,4.0,67,0.00,,,0.00,weatherlink.com 1.10,2013-10-01 20:51:00,
2013-10-01 17:06:00,67.0,56.0,29.87,NW,314,0.0,3.0,69,0.00,,,0.00,weatherlink.com 1.10,2013-10-01 21:06:00,
2013-10-01 17:21:00,66.9,57.0,29.87,SSW,201,0.0,0.0,71,0.00,,,0.00,weatherlink.com 1.10,2013-10-01 21:21:00,
2013-10-01 17:36:00,66.3,57.0,29.87,SSW,198,0.0,0.0,73,0.00,,,0.00,weatherlink.com 1.10,2013-10-01 21:36:00,
2013-10-01 17:51:00,65.6,57.0,29.87,SSW,198,0.0,0.0,74,0.00,,,0.00,weatherlink.com 1.10,2013-10-01 21:51:00,
2013-10-01 18:06:00,64.7,58.0,29.87,SSW,197,0.0,1.0,78,0.00,,,0.00,weatherlink.com 1.10,2013-10-01 22:06:00,
2013-10-01 18:22:00,62.9,57.0,29.87,SSE,147,0.0,0.0,81,0.00,,,0.00,weatherlink.com 1.10,2013-10-01 22:22:00,
2013-10-01 18:36:00,61.3,57.0,29.87,SSE,148,0.0,0.0,84,0.00,,,0.00,weatherlink.com 1.10,2013-10-01 22:36:00,
2013-10-01 18:51:00,59.9,55.0,29.87,SSE,148,0.0,0.0,85,0.00,,,0.00,weatherlink.com 1.10,2013-10-01 22:51:00,
2013-10-01 19:06:00,59.0,55.0,29.88,SE,146,0.0,0.0,87,0.00,,,0.00,weatherlink.com 1.10,2013-10-01 23:06:00,
2013-10-01 19:21:00,58.5,55.0,29.88,SE,146,0.0,1.0,87,0.00,,,0.00,weatherlink.com 1.10,2013-10-01 23:21:00,
2013-10-01 19:36:00,58.3,55.0,29.88,SSE,147,0.0,1.0,89,0.00,,,0.00,weatherlink.com 1.10,2013-10-01 23:36:00,
2013-10-01 19:51:00,58.0,55.0,29.89,SSE,147,1.0,1.0,90,0.00,,,0.00,weatherlink.com 1.10,2013-10-01 23:51:00,
2013-10-01 20:06:00,57.8,55.0,29.89,SSE,147,0.0,1.0,90,0.00,,,0.00,weatherlink.com 1.10,2013-10-02 00:06:00,
2013-10-01 20:21:00,58.0,55.0,29.89,SE,146,0.0,1.0,90,0.00,,,0.00,weatherlink.com 1.10,2013-10-02 00:21:00,
2013-10-01 20:36:00,57.8,55.0,29.89,SE,146,0.0,0.0,91,0.00,,,0.00,weatherlink.com 1.10,2013-10-02 00:36:00,
2013-10-01 20:51:00,57.7,55.0,29.89,SSE,147,0.0,0.0,90,0.00,,,0.00,weatherlink.com 1.10,2013-10-02 00:51:00,
2013-10-01 21:06:00,57.2,55.0,29.89,SE,146,0.0,0.0,91,0.00,,,0.00,weatherlink.com 1.10,2013-10-02 01:06:00,
2013-10-01 21:21:00,56.7,54.0,29.89,SE,146,0.0,0.0,91,0.00,,,0.00,weatherlink.com 1.10,2013-10-02 01:21:00,
2013-10-01 21:36:00,56.4,54.0,29.89,SE,146,0.0,0.0,91,0.00,,,0.00,weatherlink.com 1.10,2013-10-02 01:36:00,
2013-10-01 21:51:00,56.3,54.0,29.89,SE,139,0.0,0.0,92,0.00,,,0.00,weatherlink.com 1.10,2013-10-02 01:51:00,
2013-10-01 22:06:00,56.1,54.0,29.89,SE,139,0.0,0.0,92,0.00,,,0.00,weatherlink.com 1.10,2013-10-02 02:06:00,
2013-10-01 22:21:00,55.9,54.0,29.89,SE,138,0.0,0.0,92,0.00,,,0.00,weatherlink.com 1.10,2013-10-02 02:21:00,
2013-10-01 22:36:00,55.7,54.0,29.88,SE,138,0.0,0.0,93,0.00,,,0.00,weatherlink.com 1.10,2013-10-02 02:36:00,
2013-10-01 22:51:00,55.4,54.0,29.89,SE,138,0.0,0.0,93,0.00,,,0.00,weatherlink.com 1.10,2013-10-02 02:51:00,
2013-10-01 23:06:00,55.1,53.0,29.89,SE,138,0.0,0.0,93,0.00,,,0.00,weatherlink.com 1.10,2013-10-02 03:06:00,
2013-10-01 23:21:00,55.0,53.0,29.88,SE,139,0.0,0.0,93,0.00,,,0.00,weatherlink.com 1.10,2013-10-02 03:21:00,
2013-10-01 23:36:00,55.1,53.0,29.87,SE,138,0.0,0.0,93,0.00,,,0.00,weatherlink.com 1.10,2013-10-02 03:36:00,
2013-10-01 23:51:00,54.6,52.0,29.87,SE,138,0.0,0.0,92,0.00,,,0.00,weatherlink.com 1.10,2013-10-02 03:51:00,